Regional Weather Roundup
Issued by NWS

Home | Current Version | Previous Version | Text Only | Print | Product List | Glossary Off
Versions: 1 2 3 4 5 6 7 8 9 10 11 12 13 14 15 16 17 18 19 20 21 22 23 24 25 26 27 28 29 30 31 32 33 34 35 36 37 38 39 40 41 42 43 44 45 46 47 48 49 50

939
ASUS43 KIND 221209
RWRIN

WEATHER ROUNDUP FOR INDIANA
NATIONAL WEATHER SERVICE INDIANAPOLIS IN
800 AM EDT MON MAY 22 2017

NOTE: "FAIR" INDICATES FEW OR NO CLOUDS BELOW 12,000 FEET WITH NO
SIGNIFICANT WEATHER AND/OR OBSTRUCTIONS TO VISIBILITY.

* - STATION DOES NOT REPORT WEATHER SUCH AS PRECIPITATION OR FOG.

+ - STATION NOT QUALITY CONTROLLED BY THE NATIONAL WEATHER SERVICE.
    USE DATA WITH CAUTION...ESPECIALLY DEWPOINT AND RELATIVE
    HUMIDITY OBSERVATIONS.

INZ001>003-010>013-019-020-221300-
NORTHWEST INDIANA

CITY           SKY/WX    TMP DP  RH WIND       PRES   REMARKS
GARY /AIRPORT/ MOSUNNY   52  43  71 SW9       30.07R
KNOX *+        SUNNY     50  36  57 SW8       30.07S
LA PORTE +     SUNNY     50  44  79 W7        30.06S
6HR MIN TEMP:  46; 6HR MAX TEMP:  50;

MICHIGAN CITY+ SUNNY     50  43  76 SW7       30.06S
MONTICELLO +   SUNNY     50  45  81 SW7       30.09S
6HR MIN TEMP:  47; 6HR MAX TEMP:  50;

RENSSELAER +   SUNNY     52  45  76 SW9       30.09S
VALPARAISO     SUNNY     51  44  77 SW13      30.07R
6HR MIN TEMP:  49; 6HR MAX TEMP:  52;


$$

LMZ046-743>745-221300-
SOUTHERN LAKE MICHIGAN

STATION/POSITION TIME  TEMP    WIND        PRES    WAVE
                       AIR SEA DIR/SP/G            HT
                 (UTC) (F)     (DEG/KT/KT) (MB)    (FT)
BURNS HARBOR     1102   51     230/ 10/ 17 1017.9
MICHIGAN CITY    1140   51     220/ 15/ 18   N/A
5NW MICH CITY    1200   51 52  230/ 12/ 17   N/A     3

$$

INZ004-005-014>016-021>024-221300-
NORTH CENTRAL INDIANA

CITY           SKY/WX    TMP DP  RH WIND       PRES   REMARKS
ELKHART        SUNNY     50  43  76 W13       30.05R
GOSHEN         SUNNY     51  42  71 W15       30.05R
6HR MIN TEMP:  49; 6HR MAX TEMP:  51;

LOGANSPORT +   SUNNY     50  45  81 W10       30.11R
PERU/GRISSOM   CLOUDY    51  46  81 W13       30.09R
6HR MIN TEMP:  46; 6HR MAX TEMP:  51;

ROCHESTER +    SUNNY     52  45  76 W7        30.08S
SOUTH BEND     SUNNY     50  44  80 SW12      30.06R
6HR MIN TEMP:  48; 6HR MAX TEMP:  50;

WARSAW +       SUNNY     50  43  76 W13       30.07R

$$

INZ006>009-017-018-025>027-221300-
NORTHEAST INDIANA

CITY           SKY/WX    TMP DP  RH WIND       PRES   REMARKS
ANGOLA *+      SUNNY     52  45  76 W13       30.04R
AUBURN +       SUNNY     52  43  71 SW9G16    30.05S
FORT WAYNE     MOSUNNY   52  44  74 W12       30.07R
6HR MIN TEMP:  49; 6HR MAX TEMP:  52;

HUNTINGTON +   SUNNY     51  44  77 W12       30.07S
6HR MIN TEMP:  47; 6HR MAX TEMP:  51;

KENDALLVILLE + SUNNY     51  43  74 W18       30.05R

$$

INZ028-029-035-036-043>045-051>053-221300-
WEST CENTRAL INDIANA

CITY           SKY/WX    TMP DP  RH WIND       PRES   REMARKS
CRAWFORDSVL +  SUNNY     50  46  85 W7        30.11S
6HR MIN TEMP:  45; 6HR MAX TEMP:  50;

GREENCASTLE +  CLOUDY    50  45  81 W3        30.12R
LAFAYETTE      SUNNY     50  46  86 SW5       30.10S
6HR MIN TEMP:  46; 6HR MAX TEMP:  50;

TERRE HAUTE    CLOUDY    52  48  86 S3        30.12S
6HR MIN TEMP:  49; 6HR MAX TEMP:  52;


$$

INZ030>032-037>040-046>048-054>057-064-065-221300-
CENTRAL INDIANA

CITY           SKY/WX    TMP DP  RH WIND       PRES   REMARKS
CP ATTERBURY + CLOUDY    46  45  93 CALM      30.14R
COLUMBUS       SUNNY     50  46  87 SW3       30.14R
FISHERS *+     CLOUDY    52  46  82 W7        30.12R
FRANKFORT +    MOSUNNY   53  48  82 W9        30.12R
6HR MIN TEMP:  49; 6HR MAX TEMP:  53;

GREENWOOD *+   PTSUNNY   51  43  74 W6        30.12R
6HR MIN TEMP:  48; 6HR MAX TEMP:  53;

INDIANAPOLIS   PTSUNNY   51  45  79 SW7       30.11S
6HR MIN TEMP:  46; 6HR MAX TEMP:  51;

-EAGLE CREEK   CLOUDY    52  43  71 VRB5      30.11R
6HR MIN TEMP:  48; 6HR MAX TEMP:  52;

KOKOMO +       CLOUDY    51  44  77 W10       30.11R
6HR MIN TEMP:  48; 6HR MAX TEMP:  51;

MT COMFORT *+  MOSUNNY   50  45  81 W7        30.12R
SHELBYVILLE    CLOUDY    54  44  69 W7        30.11R
6HR MIN TEMP:  50; 6HR MAX TEMP:  55;

ZIONSVILLE +   MOSUNNY   51  44  78 W8        30.11S
6HR MIN TEMP:  45; 6HR MAX TEMP:  51;


$$

INZ033-034-041-042-049-050-058-059-221300-
EAST CENTRAL INDIANA

CITY           SKY/WX    TMP DP  RH WIND       PRES   REMARKS
MUNCIE         MOSUNNY   53  43  68 W9        30.09S
6HR MIN TEMP:  49; 6HR MAX TEMP:  54;

RICHMOND +     CLOUDY    50  43  76 W9        30.12R

$$

INZ060-061-067>069-081>083-085>088-221300-
SOUTHWEST INDIANA

CITY           SKY/WX    TMP DP  RH WIND       PRES   REMARKS
EVANSVILLE     MOSUNNY   58  51  78 SW3       30.18R
6HR MIN TEMP:  51; 6HR MAX TEMP:  60;

HUNTINGBURG *+ PTSUNNY   53  51  93 CALM      30.17R
6HR MIN TEMP:  48; 6HR MAX TEMP:  58;

WASHINGTON +   CLOUDY    53  51  93 S3        30.15R
6HR MIN TEMP:  51; 6HR MAX TEMP:  55;


$$

INZ062-063-066-070>080-084-089>092-221300-
SOUTH CENTRAL AND SOUTHEAST INDIANA

CITY           SKY/WX    TMP DP  RH WIND       PRES   REMARKS
BLOOMINGTON    CLOUDY    50  46  86 SE3       30.13R
6HR MIN TEMP:  47; 6HR MAX TEMP:  54;

MADISON *+     MOSUNNY   52  48  87 CALM      30.16R
NORTH VERNON + PTSUNNY   54  45  71 W3        30.15R
SEYMOUR +      CLOUDY    55  48  76 CALM      30.14R

$$





USA.gov is the U.S. government's official web portal to all federal, state and local government web resources and services.